User: anonymous   Login
Location: Observatorio Las Palmas
(29.0667°N, 110.9333°W)
Time: 14:24:18
(UTC-07:00)
Language:

Skynet4D Del rocket - Orbit

View from above orbital plane
View from above orbital plane
View from above satellite
View from above satellite

Ground track
Ground track

The orbit data is extracted from the following two-line orbital elements,

1 25135U 98002B   17115.35183160 +.00000121 +00000-0 +74653-7 0  9993
2 25135 026.8859 076.2553 0356398 218.1947 311.8969 13.62349535961004
Epoch (UTC): 25 April 2017 08:26:38
Eccentricity: 0.0356398
inclination: 26.8859°
perigee height: 763 km
apogee height: 1291 km
right ascension of ascending node: 76.2553°
argument of perigee: 218.1947°
revolutions per day: 13.62349535
mean anomaly at epoch: 311.8969°
orbit number at epoch: 96100

The dashed part of the orbit path shows where the satellite is in the earth's shadow,  

DLR